Regional Weather Roundup
Issued by NWS

Home | Current Version | Previous Version | Text Only | Print | Product List | Glossary On
Versions: 1 2 3 4 5 6 7 8 9 10 11 12 13 14 15 16 17 18 19 20 21 22 23 24 25 26 27 28 29 30 31 32 33 34 35 36 37 38 39 40 41 42 43 44 45 46 47 48 49 50
000
ASUS44 KEWX 300711
RWRTX
SOUTH TEXAS REGIONAL WEATHER ROUNDUP
NATIONAL WEATHER SERVICE AUSTIN/SAN ANTONIO TX
200 AM CDT MON MAR 30 2015

NOTE: "FAIR" INDICATED FEW OR NO CLOUDS BELOW 12,000 FEET WITH NO
SIGNIFICANT WEATHER AND/OR OBSTRUCTIONS TO VISIBILITY.

* - THESE STATIONS ARE NOT NWS OR FAA STATIONS...AND ARE NOT SUBJECT
    TO NWS AND FAA QUALITY CONTROL.

TXZ171-172-183>190-300800-
TEXAS HILL COUNTRY AND EDWARDS PLATEAU

CITY           SKY/WX    TMP DP  RH WIND       PRES   REMARKS
JUNCTION       CLEAR     62  55  77 CALM      30.13R
*LLANO         CLEAR     61  57  88 CALM      30.14S
BURNET         CLEAR     64  61  90 S8        30.13R
*HORSESHOE BAY CLEAR     65  62  89 CALM      30.11S
*KERRVILLE     PTCLDY    61  59  94 S6        30.15S
*FREDERICKSBRG CLEAR     62  60  91 CALM      30.13F
*ROCKSPRINGS   CLEAR     66  57  72 SE8       30.15S
*BOERNE STAGE  CLOUDY    63  59  88 S6        30.15S
*CASTROVILLE   CLEAR     63  62  96 CALM      30.14S
HONDO          PTCLDY    64  61  90 SE6       30.13R
*UVALDE        PTCLDY    64  59  83 E7        30.10S
DEL RIO        MOCLDY    70  58  65 E13       30.04S
LAUGHLIN AFB   MOCLDY    69  60  75 SE13      30.05S
CARRIZO SPRGS  MOCLDY    64  61  88 E6        30.06S
$$

TXZ173-191>194-202-209-217>225-228-300800-
CENTRAL AND SOUTH CENTRAL TEXAS

CITY           SKY/WX    TMP DP  RH WIND       PRES   REMARKS
GEORGETOWN     PTCLDY    66  59  77 S13G20    30.10S
AUSTIN/BERGSTM PTCLDY    61  60  97 S7        30.12R
AUSTIN/MABRY   CLOUDY    65  60  84 VRB5      30.13S
*AUSTIN/EXEC     N/A     64  63  94 SW7       30.13R
*LAGO VISTA    PTCLDY    64  61  87 S8        30.13R
SAN MARCOS     CLEAR     61  57  88 SW3       30.14S
NEW BRAUNFELS  CLEAR     61  59  93 S8        30.12R
RANDOLPH AFB   CLEAR     60  60  97 SE3       30.13R
PT SAN ANTONIO CLEAR     64  63  96 SE8       30.10F
SAN ANTONIO    PTCLDY    65  61  87 SE8       30.13S
STINSON FIELD  PTCLDY    62  60  93 SE6       30.10F
*PLEASANTON    PTCLDY    62  60  94 CALM      30.12S
*LA GRANGE     PTCLDY    68  65  89 S8        30.12S
*GIDDINGS      CLOUDY    67  62  85 S14G20    30.15S
*GONZALES      MOCLDY    66  65  97 S9        30.13S
$$

TXZ163>164-176>182-195>201-210>213-226-227-235-300800-
SOUTHEAST TEXAS

CITY           SKY/WX    TMP DP  RH WIND       PRES   REMARKS
COLLEGE STN    CLEAR     66  61  84 S10       30.11F
*BRYAN         PTCLDY    65  62  89 S7        30.14R
*CALDWELL      CLEAR     64  64 100 S9        30.14R
*CROCKETT      MOCLDY    68  64  88 SW6       30.17S
*BRENHAM       CLEAR     68  64  87 S12G17    30.13F
HUNTSVILLE     CLEAR     66  62  87 S9G20     30.13S
CONROE         CLEAR     65  61  87 S7        30.14F
HOUSTON BUSH   PTCLDY    66  63  90 S7        30.14F
HOUSTON HOBBY  PTCLDY    64  62  93 CALM      30.15F
*HOUSTON SW AP MOCLDY    62  62 100 CALM      30.16F FOG
PEARLAND       CLEAR     67  62  84 CALM      30.17S
HOUSTON HOOKS  CLEAR     65  62  90 S5        30.14F
ELLINGTON FLD  PTCLDY    66  63  88 CALM      30.17F
SUGAR LAND     CLEAR     63  61  93 S5        30.15F
*HOUSTON EXEC  CLEAR     59  59 100 S5        30.16F FOG
*CLEVELAND MUN CLEAR     62  62  97 S3        30.15F
*WHARTON       CLEAR     64  62  95 S5        30.16R
*COLUMBUS      CLOUDY    65  64  97 S5        30.14S
$$

TXZ214>216-236>238-300800-
THE UPPER TEXAS COAST

CITY           SKY/WX    TMP DP  RH WIND       PRES   REMARKS
*ORANGE        CLEAR     66  60  81 SW6       30.18F
PORT ARTHUR    CLEAR     64  62  93 SW5       30.16F
GALVESTON      CLEAR     67  65  93 S8        30.17S
ANGLETON       CLEAR     63  63 100 S7        30.15F
*BAY CITY      CLEAR     66  66  99 S6        30.14F
PALACIOS       CLEAR     69  66  90 S15       30.13F
$$

TXZ229>234-239>247-300800-
TEXAS COASTAL BEND AND RIO GRANDE PLAINS

CITY           SKY/WX    TMP DP  RH WIND       PRES   REMARKS
VICTORIA       CLOUDY    66  66 100 S8        30.13S
*BEEVILLE      CLOUDY    66  66 100 S10       30.11S
ROCKPORT       CLEAR     69  65  86 S7        30.12S
*PORT ARANSAS  CLEAR     67  65  94 S10G18    30.11S
*PORT LAVACA   MOCLDY    66  65  95 S7        30.13F
*INGLESIDE     CLEAR     70  66  89 S13G20    30.11S
CORPUS CHRISTI PTCLDY    67  65  93 S14       30.10F
CORPUS NAS     CLEAR     68  66  93 S16       30.11S
*ROBSTOWN      CLEAR     68  67  98 MISG      30.10F
ALICE          CLOUDY    68  65  90 S9        30.09S
KINGSVILLE NAS CLEAR     69  67  93 S12G21    30.10S
COTULLA        MOCLDY    68  61  78 SE7       30.08R
*FAITH RANCH   MOCLDY    68  63  83 SE8       30.06S
LAREDO         MOCLDY    67  63  87 SE10      30.07S
$$

TXZ248>255-300800-
DEEP SOUTH TEXAS

CITY           SKY/WX    TMP DP  RH WIND       PRES   REMARKS
BROWNSVILLE    CLEAR     69  66  90 S12       30.12F
PORT ISABEL    CLEAR     69  66  90 S13       30.11S
*SOUTH PADRE   CLEAR     66  66 100 S10       30.12F
HARLINGEN      CLEAR     69  66  90 S13       30.10F
*HEBBRONVILLE  NOT AVBL
MCALLEN        PTCLDY    70  66  87 SE13      30.09F
*WESLACO       MOCLDY    68  65  90 S12G17    30.09F
FALFURRIAS     CLEAR     65  63  93 SE7       30.08F
EDINBURG       CLEAR     70  66  86 SE13      30.09F
*ZAPATA        CLEAR     67  63  87 SE10      30.04F
$$

TXZ213>215-236>238-242>244-246-247-251-254-255-300800-
CMAN STATIONS

STATION/POSITION TIME  TEMP    WIND        PRES    WAVE
                       AIR SEA DIR/SP/G            HT/PER
                 (UTC) (F)     (DEG/KT/KT) (MB)    (FT/S)
$$

GMZ080-GMZ150>470-300800-
OFFSHORE BUOY REPORTS

STATION/POSITION TIME  TEMP    WIND        PRES    WAVE
                       AIR SEA DIR/SP/G            HT/PER
                 (UTC) (F)     (DEG/KT/KT) (MB)    (FT/S)
$$


USA.gov is the U.S. government's official web portal to all federal, state and local government web resources and services.